Location: Trondheim
(63.4170°N, 10.4170°E)
Time: 11:41:53
(UTC+01:00)

Iridium 82 - Visible Passes

Search period start: 22 December 2014 00:00
Search period end: 01 January 2015 00:00
Orbit: 776 x 779 km, 86.4° (Epoch: 21 December)

Date Brightness Start Highest point End Pass type
(mag) Time Alt. Az. Time Alt. Az. Time Alt. Az.
22 Dec 7.8 06:24:08 10° N 06:28:03 21° NE 06:31:57 10° ESE visible
22 Dec 5.9 08:04:34 10° N 08:09:48 68° ENE 08:15:00 10° SSE visible
23 Dec 8.1 05:50:52 10° N 05:54:00 16° NE 05:57:07 10° E visible
23 Dec 6.5 07:31:03 10° N 07:36:07 47° ENE 07:41:09 10° SSE visible
24 Dec 8.2 05:17:52 10° NNE 05:19:50 12° NE 05:21:49 10° ENE visible
24 Dec 7.1 06:57:33 10° N 07:02:19 34° ENE 07:07:02 10° SE visible
24 Dec 5.6 08:38:17 10° N 08:43:29 68° W 08:48:40 10° S visible
25 Dec 7.5 06:24:08 10° N 06:28:25 25° ENE 06:32:41 10° ESE visible
25 Dec 5.6 08:04:41 10° N 08:09:57 84° E 08:15:11 10° S visible
26 Dec 7.9 05:50:47 10° N 05:54:25 19° NE 05:58:03 10° E visible
26 Dec 6.1 07:31:08 10° N 07:36:19 59° ENE 07:41:28 10° SSE visible
27 Dec 8.2 05:17:35 10° NNE 05:20:19 14° NE 05:23:03 10° ENE visible
27 Dec 6.7 06:57:37 10° N 07:02:34 41° ENE 07:07:30 10° SE visible
27 Dec 5.7 08:38:26 10° NNW 08:43:32 55° W 08:48:36 10° SSW visible
28 Dec 8.4 04:44:53 10° NNE 04:46:07 11° NE 04:47:22 10° NE visible
28 Dec 7.3 06:24:09 10° N 06:28:44 30° ENE 06:33:18 10° SE visible
28 Dec 5.5 08:04:48 10° N 08:10:03 79° W 08:15:16 10° S visible
29 Dec 7.7 05:50:44 10° N 05:54:48 22° NE 05:58:50 10° ESE visible
29 Dec 5.8 07:31:13 10° N 07:36:28 73° E 07:41:41 10° SSE visible
30 Dec 8.1 05:17:26 10° N 05:20:45 17° NE 05:24:04 10° E visible
30 Dec 6.4 06:57:41 10° N 07:02:48 51° ENE 07:07:52 10° SSE visible
30 Dec 5.9 08:38:36 10° NNW 08:43:32 44° W 08:48:27 10° SSW visible
31 Dec 8.3 04:44:21 10° NNE 04:46:37 13° NE 04:48:53 10° ENE visible
31 Dec 7.0 06:24:11 10° N 06:29:01 36° ENE 06:33:49 10° SE visible
31 Dec 5.6 08:04:56 10° N 08:10:07 63° W 08:15:16 10° S visible
